This is the latest recevied weather packets stored in our database for station/object WD9EKA. If no packets are shown the sender has not sent any weather packets the latest 10 day(s).
| Time | Temp. | Humidity | Pressure | Rain* | Wind** | Luminosity | Snow |
|---|---|---|---|---|---|---|---|
| 1777158106 | 22.78° C | 53% | 1006.9 hPa | 0 mm | - | - | - |
| 1777157786 | 22.78° C | 50% | 1006.9 hPa | 0 mm | - | - | - |
| 1777157466 | 22.22° C | 51% | 1006.8 hPa | 0 mm | - | - | - |
| 1777157146 | 22.22° C | 49% | 1006.9 hPa | 0 mm | - | - | - |
| 1777156826 | 22.22° C | 50% | 1006.8 hPa | 0 mm | - | - | - |
| 1777156506 | 22.22° C | 46% | 1006.8 hPa | 0 mm | - | - | - |
| 1777156186 | 22.22° C | 49% | 1007 hPa | 0 mm | - | - | - |
| 1777155866 | 22.78° C | 46% | 1006.8 hPa | 0 mm | - | - | - |
| 1777155546 | 22.22° C | 41% | 1006.8 hPa | 0 mm | - | - | - |
| 1777155226 | 22.22° C | 42% | 1006.7 hPa | 0 mm | - | - | - |
| 1777154906 | 22.78° C | 40% | 1006.8 hPa | 0 mm | - | - | - |
| 1777154586 | 23.33° C | 38% | 1006.6 hPa | 0 mm | - | - | - |
| 1777154266 | 23.33° C | 42% | 1006.7 hPa | 0 mm | - | - | - |
| 1777153946 | 22.78° C | 39% | 1006.5 hPa | 0 mm | - | - | - |
| 1777153626 | 22.78° C | 40% | 1006.9 hPa | 0 mm | - | - | - |
| 1777153306 | 22.22° C | 45% | 1006.9 hPa | 0 mm | - | - | - |
| 1777152986 | 22.78° C | 43% | 1006.8 hPa | 0 mm | - | - | - |
| 1777152666 | 22.78° C | 45% | 1006.8 hPa | 0 mm | - | - | - |
| 1777152346 | 23.33° C | 40% | 1006.9 hPa | 0 mm | - | - | - |
| 1777152026 | 23.33° C | 41% | 1006.9 hPa | 0 mm | - | - | - |
| 1777151706 | 22.78° C | 42% | 1006.8 hPa | 0 mm | - | - | - |
| 1777151386 | 22.78° C | 45% | 1007 hPa | 0 mm | - | - | - |
| 1777151073 | 22.78° C | 40% | 1006.8 hPa | 0 mm | - | - | - |
| 1777150713 | 22.78° C | 44% | 1006.8 hPa | 0 mm | - | - | - |
| 1777150353 | 22.78° C | 44% | 1007 hPa | 0 mm | - | - | - |
* Rain latest hour (hover to see other rain measurements)
** Current wind speed in m/s (hover to see current wind gust speed)